Tracking 30923 objects as of 1-Jul-2025
HD Live streaming from Space Station
objects crossing your sky now

NOAA 16 DEB

Track NOAA 16 DEB now!
10-day predictions


NORAD ID: 42405
Int'l Code: 2000-055SZ
Perigee: 720.0 km
Apogee: 760.8 km
Inclination: 99.0 °
Period: 99.5 minutes
Semi major axis: 7111 km
RCS: Unknown
Launch date: September 21, 2000
Source: United States (US)
Launch site: AIR FORCE WESTERN TEST RANGE (AFWTR)

Note: This is SATELLITE DEBRIS
Your satellite tracking list
ICEYE-X31
Track 1 satellite(s)




NASA's NSSDC Master Catalog

Two Line Element Set (TLE):
1 42405U 00055SZ  25180.34338468  .00004208  00000-0  11483-2 0  9993
2 42405  99.0429  40.6338 0028697  92.3202 268.1275 14.47664570482665
Source of the keplerian elements: AFSPC